Retour au catalogue

THOR ABLESTAR DEB

ActifLEO
NORAD 408·DEBRIS·🇺🇸 United States

Lancé Jun 29, 1961 depuis Cape Canaveral Space Force Station

Loading…

Prochains Passages (prochaines 24 heures)

TLE

FraisSource: Space-Track

Époque: Sep 10, 2026, 11:28 UTC

1   408U 61015EH  26253.47806894  .00000232  00000-0  30477-3 0  9990
2   408  66.7840 265.6009 0057809  61.3612  14.2968 13.77217547317444

Suivez THOR ABLESTAR DEB en temps réel avec AllMySat

Download on the App Store